Weather Roundup
Issued by NWS

Home | Current Version | Previous Version | Graphics & Text | Print | Product List | Glossary Off
Versions: 1 2 3 4 5 6 7 8 9 10 11 12 13 14 15 16 17 18 19 20 21 22 23 24 25 26 27 28 29 30 31 32 33 34 35 36 37 38 39 40 41 42 43 44 45 46 47 48 49 50

000
NZUS93 KARX 021759
HRRWXR

CURRENT HOURLY OBSERVATIONS ACROSS
MUCH OF THE UPPER MISSISSIPPI VALLEY
NATIONAL WEATHER SERVICE LA CROSSE WI
100 PM CDT SUN AUG 02 2015


...SOUTHEAST MINNESOTA...


CITY           SKY/WX    TMP DP  RH WIND       PRES   REMARKS
ROCHESTER      SUNNY     83  70  64 W21G30    29.68S
ROCHESTER/MAYO FAIR      85  66  53 SW16G31   29.65F
WINONA         MOSUNNY   90  68  48 W9G17     29.61S HX  93
AUSTIN         SUNNY     86  66  51 W18G24    29.70S
ALBERT LEA     SUNNY     86  66  51 W10G20    29.71S
DODGE CENTER   SUNNY     82  66  57 W21G26    29.68S
PRESTON        SUNNY     85  68  57 W18G26    29.69S
OWATONNA       SUNNY     82  66  57 W18G28    29.70R
FARIBAULT      SUNNY     82  66  57 W20G26    29.69R
$$

...ELSEWHERE IN MINNESOTA...


CITY           SKY/WX    TMP DP  RH WIND       PRES   REMARKS
MINNEAPOLIS    MOSUNNY   83  66  56 NW21      29.66R
INTNL FALLS    MOSUNNY   71  52  50 NW14G24   29.69R
DULUTH         MOSUNNY   73  60  63 NW16G23   29.67R
RED WING       SUNNY     86  64  48 W22G30    29.62R
REDWOOD FALLS  SUNNY     84  66  54 NW14G24   29.75R
MANKATO        SUNNY     82  63  51 W17G25    29.70R
WORTHINGTON    SUNNY     82  64  54 NW15      29.81S
FAIRMONT       SUNNY     84  63  48 NW16      29.74F
$$

...SOUTHWEST WISCONSIN...


CITY           SKY/WX    TMP DP  RH WIND       PRES   REMARKS
LA CROSSE      MOSUNNY   90  69  50 SW18G26   29.61F HX  94
PRAIRIE DU CHI SUNNY     88  66  48 S14G22    29.69F HX  90
BOSCOBEL       SUNNY     91  68  46 SW17G30   29.67F HX  95
LONE ROCK      NOT AVBL
PLATTEVILLE    SUNNY     85  71  62 SW17G24   29.75F HX  91
FORT MC COY    MOSUNNY   87  64  45 SW12G22   29.63F
VIROQUA        FAIR      84  69  59 SW16G23   29.68F
WIS DELLS      SUNNY     87  65  49 SW16G23   29.67F
$$

...ELSEWHERE IN WISCONSIN...


CITY           SKY/WX    TMP DP  RH WIND       PRES   REMARKS
MILWAUKEE      MOSUNNY   90  66  45 SW22G31   29.70F HX  92
MADISON        MOSUNNY   86  69  56 SW13G20   29.68F HX  90
GREEN BAY      PTSUNNY   86  71  60 S13G23    29.58F HX  91
EAU CLAIRE     NOT AVBL
BLACK RVR FLS  FAIR      87  66  48 SW14G20   29.60F
MEDFORD        CLOUDY    76  68  76 W13       29.63S
WAUSAU         PTSUNNY   84  67  56 NW13      29.59R
WIS RAPIDS     MOSUNNY   90  64  42 SW20G26   29.60F HX  91
MARSHFIELD     PTSUNNY   86  66  51 W20       29.59F
RICE LAKE      CLOUDY    73  65  78 W9        29.67R
$$

...NORTHEAST IOWA...


CITY           SKY/WX    TMP DP  RH WIND       PRES   REMARKS
DECORAH        SUNNY     84  72  65 SW10G18   29.68F
MASON CITY     SUNNY     87  73  62 W16       29.74F HX  94
CHARLES CITY   SUNNY     84  75  74 SW14      29.73F HX  92
OELWEIN        SUNNY     84  72  65 SW13G21   29.75F
$$

...ELSEWHERE IN IOWA...


CITY           SKY/WX    TMP DP  RH WIND       PRES   REMARKS
DES MOINES     MOSUNNY   91  72  53 W21G29    29.79F HX  98
IOWA CITY      SUNNY     88  73  61 SW13G21   29.80F HX  95
FORT DODGE     SUNNY     86  73  66 SW14      29.78F HX  93
$$

...NORTHERN ILLINOIS...


CITY           SKY/WX    TMP DP  RH WIND       PRES   REMARKS
CHICAGO-OHARE  MOSUNNY   89  63  41 SW14G31   29.78F HX  90
CHICAGO-MIDWAY MOSUNNY   92  62  36 SW20G31   29.79F HX  92
MOLINE         MOSUNNY   89  70  53 SW18G24   29.80F HX  94
ROCKFORD       MOSUNNY   88  68  51 SW15G26   29.78F HX  91
PEORIA         MOSUNNY   90  70  51 SW15      29.85F HX  95
$$

NOTE: "FAIR" INDICATES FEW OR NO CLOUDS BELOW 12,000 FEET WITH NO
SIGNIFICANT WEATHER AND/OR OBSTRUCTIONS TO VISIBILITY. WIND
SPEEDS ARE IN MILES-PER-HOUR.



USA.gov is the U.S. government's official web portal to all federal, state and local government web resources and services.